Time,TemperatureF,DewpointF,PressureIn,WindDirection,WindDirectionDegrees,WindSpeedMPH,WindSpeedGustMPH,Humidity,HourlyPrecipIn,Conditions,Clouds,dailyrainin,SoftwareType,DateUTC
2013-12-31 00:05:00,48.4,45.6,30.24,SSW,200,1.0,3.0,90,0.00,,,0.00,Wunderground v.1.15,2013-12-31 05:05:00,
2013-12-31 00:10:00,48.5,45.7,30.23,WSW,250,1.0,5.0,90,0.00,,,0.00,Wunderground v.1.15,2013-12-31 05:10:00,
2013-12-31 00:15:00,48.5,45.7,30.23,NW,326,2.0,5.0,90,0.00,,,0.00,Wunderground v.1.15,2013-12-31 05:15:00,
2013-12-31 00:25:00,48.4,45.3,30.23,WNW,293,2.0,3.0,89,0.00,,,0.00,Wunderground v.1.15,2013-12-31 05:25:00,
2013-12-31 00:30:00,48.4,45.6,30.24,West,281,1.0,1.0,90,0.00,,,0.00,Wunderground v.1.15,2013-12-31 05:30:00,
2013-12-31 00:35:00,48.4,45.6,30.24,WSW,256,1.0,2.0,90,0.00,,,0.00,Wunderground v.1.15,2013-12-31 05:35:00,
2013-12-31 00:40:00,48.4,45.6,30.23,WSW,250,1.0,2.0,90,0.00,,,0.00,Wunderground v.1.15,2013-12-31 05:40:00,
2013-12-31 00:45:00,48.4,45.6,30.23,WNW,284,1.0,2.0,90,0.00,,,0.00,Wunderground v.1.15,2013-12-31 05:45:00,
2013-12-31 00:55:00,48.3,45.5,30.23,WNW,286,1.0,1.0,90,0.00,,,0.00,Wunderground v.1.15,2013-12-31 05:55:00,
2013-12-31 01:05:00,48.2,45.4,30.24,SW,231,1.0,2.0,90,0.00,,,0.00,Wunderground v.1.15,2013-12-31 06:05:00,
2013-12-31 01:15:00,48.0,45.2,30.23,WSW,239,1.0,3.0,90,0.00,,,0.00,Wunderground v.1.15,2013-12-31 06:15:00,
2013-12-31 01:25:00,47.9,45.4,30.23,West,273,1.0,1.0,91,0.00,,,0.00,Wunderground v.1.15,2013-12-31 06:25:00,
2013-12-31 01:30:00,47.8,45.3,30.24,West,281,1.0,1.0,91,0.00,,,0.00,Wunderground v.1.15,2013-12-31 06:30:00,
2013-12-31 01:35:00,47.7,45.2,30.24,West,281,0.0,1.0,91,0.00,,,0.00,Wunderground v.1.15,2013-12-31 06:35:00,
2013-12-31 01:45:00,47.5,45.3,30.24,South,190,1.0,1.0,92,0.00,,,0.00,Wunderground v.1.15,2013-12-31 06:45:00,
2013-12-31 01:50:00,47.4,44.9,30.24,NNW,331,1.0,1.0,91,0.00,,,0.00,Wunderground v.1.15,2013-12-31 06:50:00,
2013-12-31 01:55:00,47.4,45.2,30.25,NNW,333,1.0,1.0,92,0.00,,,0.00,Wunderground v.1.15,2013-12-31 06:55:00,
2013-12-31 02:00:00,47.3,45.1,30.25,WNW,286,1.0,1.0,92,0.00,,,0.00,Wunderground v.1.15,2013-12-31 07:00:00,
2013-12-31 02:10:00,47.3,45.1,30.25,NW,320,1.0,1.0,92,0.00,,,0.00,Wunderground v.1.15,2013-12-31 07:10:00,
2013-12-31 02:15:00,47.2,45.0,30.25,NW,326,1.0,1.0,92,0.00,,,0.00,Wunderground v.1.15,2013-12-31 07:15:00,
2013-12-31 02:25:00,47.2,45.0,30.25,WSW,254,2.0,2.0,92,0.00,,,0.00,Wunderground v.1.15,2013-12-31 07:25:00,
2013-12-31 02:30:00,47.0,44.5,30.25,NW,310,2.0,2.0,91,0.00,,,0.00,Wunderground v.1.15,2013-12-31 07:30:00,
2013-12-31 02:40:00,46.7,44.2,30.25,WSW,249,1.0,1.0,91,0.00,,,0.00,Wunderground v.1.15,2013-12-31 07:40:00,
2013-12-31 02:45:00,46.5,44.0,30.26,WNW,294,1.0,1.0,91,0.00,,,0.00,Wunderground v.1.15,2013-12-31 07:45:00,
2013-12-31 02:55:00,46.4,44.2,30.26,WSW,244,2.0,2.0,92,0.00,,,0.00,Wunderground v.1.15,2013-12-31 07:55:00,
2013-12-31 03:00:00,46.4,43.9,30.26,West,267,1.0,1.0,91,0.00,,,0.00,Wunderground v.1.15,2013-12-31 08:00:00,
2013-12-31 03:10:00,46.1,43.6,30.26,NW,313,1.0,1.0,91,0.00,,,0.00,Wunderground v.1.15,2013-12-31 08:10:00,
2013-12-31 03:15:00,46.0,43.5,30.27,NW,323,2.0,2.0,91,0.00,,,0.00,Wunderground v.1.15,2013-12-31 08:15:00,
2013-12-31 03:25:00,45.7,43.2,30.26,WNW,296,1.0,1.0,91,0.00,,,0.00,Wunderground v.1.15,2013-12-31 08:25:00,
2013-12-31 03:35:00,45.5,43.3,30.26,SW,230,1.0,1.0,92,0.00,,,0.00,Wunderground v.1.15,2013-12-31 08:35:00,
2013-12-31 03:45:00,45.3,42.8,30.27,ESE,121,1.0,1.0,91,0.00,,,0.00,Wunderground v.1.15,2013-12-31 08:45:00,
2013-12-31 03:50:00,45.2,42.7,30.27,SW,214,1.0,1.0,91,0.00,,,0.00,Wunderground v.1.15,2013-12-31 08:50:00,
2013-12-31 03:55:00,45.0,42.5,30.27,SW,215,0.0,2.0,91,0.00,,,0.00,Wunderground v.1.15,2013-12-31 08:55:00,
2013-12-31 04:00:00,45.0,42.5,30.28,SE,138,1.0,1.0,91,0.00,,,0.00,Wunderground v.1.15,2013-12-31 09:00:00,
2013-12-31 04:10:00,45.0,42.5,30.28,West,264,2.0,2.0,91,0.00,,,0.00,Wunderground v.1.15,2013-12-31 09:10:00,
2013-12-31 04:20:00,44.9,42.1,30.27,NW,304,2.0,2.0,90,0.00,,,0.00,Wunderground v.1.15,2013-12-31 09:20:00,
2013-12-31 04:25:00,44.8,42.0,30.27,West,275,2.0,2.0,90,0.00,,,0.00,Wunderground v.1.15,2013-12-31 09:25:00,
2013-12-31 04:30:00,44.7,41.9,30.27,WNW,294,2.0,3.0,90,0.00,,,0.00,Wunderground v.1.15,2013-12-31 09:30:00,
2013-12-31 04:40:00,44.6,41.6,30.27,NW,323,2.0,2.0,89,0.00,,,0.00,Wunderground v.1.15,2013-12-31 09:40:00,
2013-12-31 04:50:00,44.4,41.4,30.27,SW,223,1.0,1.0,89,0.00,,,0.00,Wunderground v.1.15,2013-12-31 09:50:00,
2013-12-31 04:55:00,44.3,41.3,30.27,SW,214,1.0,1.0,89,0.00,,,0.00,Wunderground v.1.15,2013-12-31 09:55:00,
2013-12-31 05:00:00,44.2,41.2,30.28,WNW,285,1.0,1.0,89,0.00,,,0.00,Wunderground v.1.15,2013-12-31 10:00:00,
2013-12-31 05:05:00,44.1,41.4,30.27,NNW,331,1.0,1.0,90,0.00,,,0.00,Wunderground v.1.15,2013-12-31 10:05:00,
2013-12-31 05:15:00,43.9,41.2,30.28,WSW,248,1.0,3.0,90,0.00,,,0.00,Wunderground v.1.15,2013-12-31 10:15:00,
2013-12-31 05:20:00,43.8,41.1,30.27,West,269,1.0,2.0,90,0.00,,,0.00,Wunderground v.1.15,2013-12-31 10:20:00,
2013-12-31 05:25:00,43.7,41.0,30.27,SSW,198,1.0,2.0,90,0.00,,,0.00,Wunderground v.1.15,2013-12-31 10:25:00,
2013-12-31 05:30:00,43.7,41.0,30.28,SSW,199,2.0,2.0,90,0.00,,,0.00,Wunderground v.1.15,2013-12-31 10:30:00,
2013-12-31 05:40:00,43.6,40.6,30.28,West,276,1.0,1.0,89,0.00,,,0.00,Wunderground v.1.15,2013-12-31 10:40:00,
2013-12-31 05:45:00,43.5,40.5,30.29,WNW,298,2.0,2.0,89,0.00,,,0.00,Wunderground v.1.15,2013-12-31 10:45:00,
2013-12-31 05:55:00,43.3,40.3,30.29,West,275,1.0,2.0,89,0.00,,,0.00,Wunderground v.1.15,2013-12-31 10:55:00,
2013-12-31 06:00:00,43.1,40.1,30.30,West,262,1.0,1.0,89,0.00,,,0.00,Wunderground v.1.15,2013-12-31 11:00:00,
2013-12-31 06:10:00,42.9,40.2,30.29,West,272,1.0,1.0,90,0.00,,,0.00,Wunderground v.1.15,2013-12-31 11:10:00,
2013-12-31 06:15:00,42.8,40.1,30.29,WSW,244,0.0,1.0,90,0.00,,,0.00,Wunderground v.1.15,2013-12-31 11:15:00,
2013-12-31 06:25:00,42.6,39.9,30.30,WNW,294,1.0,1.0,90,0.00,,,0.00,Wunderground v.1.15,2013-12-31 11:25:00,
2013-12-31 06:35:00,42.5,39.8,30.30,WSW,245,1.0,1.0,90,0.00,,,0.00,Wunderground v.1.15,2013-12-31 11:35:00,
2013-12-31 06:40:00,42.4,39.7,30.31,WSW,245,1.0,1.0,90,0.00,,,0.00,Wunderground v.1.15,2013-12-31 11:40:00,
2013-12-31 06:45:00,42.3,39.9,30.31,West,261,1.0,3.0,91,0.00,,,0.00,Wunderground v.1.15,2013-12-31 11:45:00,
2013-12-31 06:55:00,42.2,39.8,30.31,SW,234,2.0,4.0,91,0.00,,,0.00,Wunderground v.1.15,2013-12-31 11:55:00,
2013-12-31 07:00:00,42.2,39.8,30.31,WNW,284,2.0,2.0,91,0.00,,,0.00,Wunderground v.1.15,2013-12-31 12:00:00,
2013-12-31 07:05:00,42.1,39.7,30.32,West,263,2.0,2.0,91,0.00,,,0.00,Wunderground v.1.15,2013-12-31 12:05:00,
2013-12-31 07:15:00,41.9,39.5,30.32,WNW,284,2.0,2.0,91,0.00,,,0.00,Wunderground v.1.15,2013-12-31 12:15:00,
2013-12-31 07:20:00,41.8,39.4,30.33,WNW,299,2.0,2.0,91,0.00,,,0.00,Wunderground v.1.15,2013-12-31 12:20:00,
2013-12-31 07:25:00,41.7,39.3,30.33,SW,227,2.0,2.0,91,0.00,,,0.00,Wunderground v.1.15,2013-12-31 12:25:00,
2013-12-31 07:30:00,41.6,39.2,30.33,NW,325,2.0,2.0,91,0.00,,,0.00,Wunderground v.1.15,2013-12-31 12:30:00,
2013-12-31 07:35:00,41.5,39.1,30.33,NW,315,1.0,2.0,91,0.00,,,0.00,Wunderground v.1.15,2013-12-31 12:35:00,
2013-12-31 07:40:00,41.4,39.0,30.33,NNW,331,1.0,1.0,91,0.00,,,0.00,Wunderground v.1.15,2013-12-31 12:40:00,
2013-12-31 07:45:00,41.3,38.9,30.33,WNW,300,2.0,2.0,91,0.00,,,0.00,Wunderground v.1.15,2013-12-31 12:45:00,
2013-12-31 07:55:00,41.2,38.5,30.34,WNW,300,1.0,1.0,90,0.00,,,0.00,Wunderground v.1.15,2013-12-31 12:55:00,
2013-12-31 08:05:00,41.1,38.4,30.34,WSW,244,1.0,2.0,90,0.00,,,0.00,Wunderground v.1.15,2013-12-31 13:05:00,
2013-12-31 08:10:00,41.1,38.4,30.34,West,277,2.0,2.0,90,0.00,,,0.00,Wunderground v.1.15,2013-12-31 13:10:00,
2013-12-31 08:15:00,41.1,38.1,30.34,West,269,2.0,2.0,89,0.00,,,0.00,Wunderground v.1.15,2013-12-31 13:15:00,
2013-12-31 08:20:00,41.1,38.1,30.35,North,11,1.0,1.0,89,0.00,,,0.00,Wunderground v.1.15,2013-12-31 13:20:00,
2013-12-31 08:25:00,41.1,37.8,30.35,SE,134,1.0,2.0,88,0.00,,,0.00,Wunderground v.1.15,2013-12-31 13:25:00,
2013-12-31 08:30:00,41.2,37.9,30.35,North,355,1.0,4.0,88,0.00,,,0.00,Wunderground v.1.15,2013-12-31 13:30:00,
2013-12-31 08:40:00,41.3,37.7,30.36,ENE,67,2.0,2.0,87,0.00,,,0.00,Wunderground v.1.15,2013-12-31 13:40:00,
2013-12-31 08:45:00,41.4,37.5,30.36,WNW,302,2.0,3.0,86,0.00,,,0.00,Wunderground v.1.15,2013-12-31 13:45:00,
2013-12-31 08:55:00,41.5,37.3,30.37,NNW,331,3.0,3.0,85,0.00,,,0.00,Wunderground v.1.15,2013-12-31 13:55:00,
2013-12-31 09:05:00,41.8,37.6,30.36,West,277,1.0,2.0,85,0.00,,,0.00,Wunderground v.1.15,2013-12-31 14:05:00,
2013-12-31 09:10:00,42.1,37.6,30.37,West,281,1.0,3.0,84,0.00,,,0.00,Wunderground v.1.15,2013-12-31 14:10:00,
2013-12-31 09:15:00,42.5,38.0,30.38,NNW,344,2.0,3.0,84,0.00,,,0.00,Wunderground v.1.15,2013-12-31 14:15:00,
2013-12-31 09:25:00,43.0,37.6,30.38,SW,226,3.0,3.0,81,0.00,,,0.00,Wunderground v.1.15,2013-12-31 14:25:00,
2013-12-31 09:30:00,43.0,37.3,30.39,WSW,237,3.0,3.0,80,0.00,,,0.00,Wunderground v.1.15,2013-12-31 14:30:00,
2013-12-31 09:35:00,43.1,37.3,30.39,NNW,338,3.0,3.0,80,0.00,,,0.00,Wunderground v.1.15,2013-12-31 14:35:00,
2013-12-31 09:40:00,43.3,37.5,30.39,West,281,2.0,2.0,80,0.00,,,0.00,Wunderground v.1.15,2013-12-31 14:40:00,
2013-12-31 09:45:00,43.4,37.0,30.39,NW,311,2.0,2.0,78,0.00,,,0.00,Wunderground v.1.15,2013-12-31 14:45:00,
2013-12-31 09:55:00,43.8,37.1,30.40,NW,304,2.0,3.0,77,0.00,,,0.00,Wunderground v.1.15,2013-12-31 14:55:00,
2013-12-31 10:05:00,44.0,36.9,30.40,West,277,3.0,3.0,76,0.00,,,0.00,Wunderground v.1.15,2013-12-31 15:05:00,
2013-12-31 10:10:00,44.0,36.9,30.40,NW,304,2.0,4.0,76,0.00,,,0.00,Wunderground v.1.15,2013-12-31 15:10:00,
2013-12-31 10:15:00,44.1,36.7,30.41,WNW,298,2.0,4.0,75,0.00,,,0.00,Wunderground v.1.15,2013-12-31 15:15:00,
2013-12-31 10:25:00,44.6,37.2,30.41,NNW,329,3.0,4.0,75,0.00,,,0.00,Wunderground v.1.15,2013-12-31 15:25:00,
2013-12-31 10:30:00,44.9,36.4,30.41,NNW,348,3.0,3.0,72,0.00,,,0.00,Wunderground v.1.15,2013-12-31 15:30:00,
2013-12-31 10:40:00,45.9,37.0,30.41,NW,320,3.0,7.0,71,0.00,,,0.00,Wunderground v.1.15,2013-12-31 15:40:00,
2013-12-31 10:45:00,46.1,36.9,30.40,NW,323,4.0,7.0,70,0.00,,,0.00,Wunderground v.1.15,2013-12-31 15:45:00,
2013-12-31 10:55:00,46.8,37.2,30.40,West,279,2.0,4.0,69,0.00,,,0.00,Wunderground v.1.15,2013-12-31 15:55:00,
2013-12-31 11:05:00,46.9,36.1,30.40,SW,217,4.0,4.0,66,0.00,,,0.00,Wunderground v.1.15,2013-12-31 16:05:00,
2013-12-31 11:10:00,47.1,36.7,30.40,NW,310,3.0,3.0,67,0.00,,,0.00,Wunderground v.1.15,2013-12-31 16:10:00,
2013-12-31 11:15:00,47.2,36.8,30.41,West,275,2.0,3.0,67,0.00,,,0.00,Wunderground v.1.15,2013-12-31 16:15:00,
2013-12-31 11:20:00,47.3,36.9,30.40,NNW,327,2.0,2.0,67,0.00,,,0.00,Wunderground v.1.15,2013-12-31 16:20:00,
2013-12-31 11:25:00,47.4,36.6,30.40,NNW,344,2.0,2.0,66,0.00,,,0.00,Wunderground v.1.15,2013-12-31 16:25:00,
2013-12-31 11:30:00,47.5,35.9,30.40,NW,322,2.0,2.0,64,0.00,,,0.00,Wunderground v.1.15,2013-12-31 16:30:00,
2013-12-31 11:40:00,47.7,36.1,30.41,West,279,3.0,3.0,64,0.00,,,0.00,Wunderground v.1.15,2013-12-31 16:40:00,
2013-12-31 11:45:00,48.1,36.9,30.40,North,360,2.0,4.0,65,0.00,,,0.00,Wunderground v.1.15,2013-12-31 16:45:00,
2013-12-31 11:50:00,48.3,36.7,30.40,WSW,245,3.0,3.0,64,0.00,,,0.00,Wunderground v.1.15,2013-12-31 16:50:00,
2013-12-31 11:55:00,48.8,36.8,30.40,West,272,3.0,3.0,63,0.00,,,0.00,Wunderground v.1.15,2013-12-31 16:55:00,
2013-12-31 12:00:00,49.2,37.1,30.40,North,360,3.0,3.0,63,0.00,,,0.00,Wunderground v.1.15,2013-12-31 17:00:00,
2013-12-31 12:10:00,49.6,36.7,30.40,West,279,3.0,3.0,61,0.00,,,0.00,Wunderground v.1.15,2013-12-31 17:10:00,
2013-12-31 12:20:00,49.9,36.6,30.39,WNW,282,3.0,5.0,60,0.00,,,0.00,Wunderground v.1.15,2013-12-31 17:20:00,
2013-12-31 12:25:00,50.3,36.9,30.39,North,9,2.0,5.0,60,0.00,,,0.00,Wunderground v.1.15,2013-12-31 17:25:00,
2013-12-31 12:30:00,50.5,35.8,30.38,NNW,336,3.0,3.0,57,0.00,,,0.00,Wunderground v.1.15,2013-12-31 17:30:00,
2013-12-31 12:40:00,51.4,34.8,30.38,NNW,328,3.0,4.0,53,0.00,,,0.00,Wunderground v.1.15,2013-12-31 17:40:00,
2013-12-31 12:45:00,51.7,35.1,30.38,East,79,3.0,4.0,53,0.00,,,0.00,Wunderground v.1.15,2013-12-31 17:45:00,
2013-12-31 12:55:00,51.6,35.0,30.37,West,276,3.0,3.0,53,0.00,,,0.00,Wunderground v.1.15,2013-12-31 17:55:00,
2013-12-31 13:00:00,51.4,34.8,30.37,NW,309,2.0,3.0,53,0.00,,,0.00,Wunderground v.1.15,2013-12-31 18:00:00,
2013-12-31 13:10:00,51.7,34.1,30.36,West,268,2.0,4.0,51,0.00,,,0.00,Wunderground v.1.15,2013-12-31 18:10:00,
2013-12-31 13:15:00,51.8,33.2,30.36,WNW,296,3.0,5.0,49,0.00,,,0.00,Wunderground v.1.15,2013-12-31 18:15:00,
2013-12-31 13:20:00,52.2,35.1,30.36,North,349,3.0,3.0,52,0.00,,,0.00,Wunderground v.1.15,2013-12-31 18:20:00,
2013-12-31 13:30:00,51.7,32.6,30.36,NNW,331,4.0,4.0,48,0.00,,,0.00,Wunderground v.1.15,2013-12-31 18:30:00,
2013-12-31 13:40:00,51.4,33.9,30.35,NNW,344,3.0,3.0,51,0.00,,,0.00,Wunderground v.1.15,2013-12-31 18:40:00,
2013-12-31 13:45:00,51.4,33.9,30.35,NW,325,3.0,4.0,51,0.00,,,0.00,Wunderground v.1.15,2013-12-31 18:45:00,
2013-12-31 13:55:00,51.7,34.1,30.35,NNW,334,3.0,5.0,51,0.00,,,0.00,Wunderground v.1.15,2013-12-31 18:55:00,
2013-12-31 14:00:00,51.6,34.0,30.35,WNW,297,3.0,3.0,51,0.00,,,0.00,Wunderground v.1.15,2013-12-31 19:00:00,
2013-12-31 14:10:00,51.9,34.3,30.35,NNW,329,2.0,4.0,51,0.00,,,0.00,Wunderground v.1.15,2013-12-31 19:10:00,
2013-12-31 14:15:00,51.8,33.7,30.35,SW,218,2.0,4.0,50,0.00,,,0.00,Wunderground v.1.15,2013-12-31 19:15:00,
2013-12-31 14:20:00,51.6,33.6,30.35,NNW,338,3.0,4.0,50,0.00,,,0.00,Wunderground v.1.15,2013-12-31 19:20:00,
2013-12-31 14:25:00,51.7,32.6,30.35,WNW,301,4.0,4.0,48,0.00,,,0.00,Wunderground v.1.15,2013-12-31 19:25:00,
2013-12-31 14:35:00,52.1,33.5,30.34,North,355,3.0,5.0,49,0.00,,,0.00,Wunderground v.1.15,2013-12-31 19:35:00,
2013-12-31 14:40:00,52.6,34.0,30.34,NW,319,3.0,3.0,49,0.00,,,0.00,Wunderground v.1.15,2013-12-31 19:40:00,
2013-12-31 14:45:00,52.6,34.0,30.34,West,259,3.0,3.0,49,0.00,,,0.00,Wunderground v.1.15,2013-12-31 19:45:00,
2013-12-31 14:55:00,52.7,34.1,30.34,SSW,211,2.0,3.0,49,0.00,,,0.00,Wunderground v.1.15,2013-12-31 19:55:00,
2013-12-31 15:00:00,53.0,34.3,30.34,NNW,331,1.0,4.0,49,0.00,,,0.00,Wunderground v.1.15,2013-12-31 20:00:00,
2013-12-31 15:10:00,53.0,32.2,30.35,WNW,287,2.0,2.0,45,0.00,,,0.00,Wunderground v.1.15,2013-12-31 20:10:00,
2013-12-31 15:15:00,52.9,32.7,30.36,West,273,2.0,2.0,46,0.00,,,0.00,Wunderground v.1.15,2013-12-31 20:15:00,
2013-12-31 15:25:00,52.8,31.5,30.36,NW,314,3.0,4.0,44,0.00,,,0.00,Wunderground v.1.15,2013-12-31 20:25:00,
2013-12-31 15:30:00,52.3,31.0,30.36,North,349,3.0,3.0,44,0.00,,,0.00,Wunderground v.1.15,2013-12-31 20:30:00,
2013-12-31 15:35:00,52.2,33.1,30.36,West,275,3.0,3.0,48,0.00,,,0.00,Wunderground v.1.15,2013-12-31 20:35:00,
2013-12-31 15:45:00,52.6,33.5,30.36,NNW,328,2.0,2.0,48,0.00,,,0.00,Wunderground v.1.15,2013-12-31 20:45:00,
2013-12-31 15:50:00,52.6,32.9,30.36,SW,230,2.0,2.0,47,0.00,,,0.00,Wunderground v.1.15,2013-12-31 20:50:00,
2013-12-31 15:55:00,52.3,33.7,30.36,WSW,248,2.0,2.0,49,0.00,,,0.00,Wunderground v.1.15,2013-12-31 20:55:00,
2013-12-31 16:00:00,52.0,33.9,30.36,West,261,2.0,2.0,50,0.00,,,0.00,Wunderground v.1.15,2013-12-31 21:00:00,
2013-12-31 16:10:00,51.6,34.0,30.36,NNW,331,1.0,1.0,51,0.00,,,0.00,Wunderground v.1.15,2013-12-31 21:10:00,
2013-12-31 16:15:00,51.4,33.9,30.36,NNW,331,1.0,1.0,51,0.00,,,0.00,Wunderground v.1.15,2013-12-31 21:15:00,
2013-12-31 16:20:00,51.2,35.1,30.36,NNW,330,0.0,1.0,54,0.00,,,0.00,Wunderground v.1.15,2013-12-31 21:20:00,
2013-12-31 16:25:00,51.0,35.4,30.36,NNW,330,0.0,1.0,55,0.00,,,0.00,Wunderground v.1.15,2013-12-31 21:25:00,
2013-12-31 16:30:00,50.7,34.6,30.35,NNW,330,0.0,0.0,54,0.00,,,0.00,Wunderground v.1.15,2013-12-31 21:30:00,
2013-12-31 16:40:00,50.1,35.4,30.36,NNW,330,0.0,0.0,57,0.00,,,0.00,Wunderground v.1.15,2013-12-31 21:40:00,
2013-12-31 16:50:00,49.5,36.2,30.36,NNW,330,0.0,0.0,60,0.00,,,0.00,Wunderground v.1.15,2013-12-31 21:50:00,
2013-12-31 17:00:00,48.6,37.7,30.36,NNW,330,0.0,0.0,66,0.00,,,0.00,Wunderground v.1.15,2013-12-31 22:00:00,
2013-12-31 17:05:00,48.1,38.0,30.37,NNW,330,0.0,0.0,68,0.00,,,0.00,Wunderground v.1.15,2013-12-31 22:05:00,
2013-12-31 17:15:00,47.0,38.1,30.37,NNW,330,0.0,0.0,71,0.00,,,0.00,Wunderground v.1.15,2013-12-31 22:15:00,
2013-12-31 17:25:00,46.0,38.2,30.38,NNW,330,0.0,1.0,74,0.00,,,0.00,Wunderground v.1.15,2013-12-31 22:25:00,
2013-12-31 17:30:00,45.4,38.3,30.38,NNW,330,0.0,1.0,76,0.00,,,0.00,Wunderground v.1.15,2013-12-31 22:30:00,
2013-12-31 17:40:00,44.5,38.1,30.38,NNW,330,0.0,0.0,78,0.00,,,0.00,Wunderground v.1.15,2013-12-31 22:40:00,
2013-12-31 17:45:00,44.1,38.0,30.38,NNW,330,0.0,0.0,79,0.00,,,0.00,Wunderground v.1.15,2013-12-31 22:45:00,
2013-12-31 17:50:00,43.8,37.7,30.38,NNW,330,0.0,0.0,79,0.00,,,0.00,Wunderground v.1.15,2013-12-31 22:50:00,
2013-12-31 17:55:00,43.3,37.5,30.38,NNW,330,0.0,0.0,80,0.00,,,0.00,Wunderground v.1.15,2013-12-31 22:55:00,
2013-12-31 18:05:00,42.6,37.5,30.38,NNW,330,0.0,0.0,82,0.00,,,0.00,Wunderground v.1.15,2013-12-31 23:05:00,
2013-12-31 18:10:00,42.3,37.5,30.38,NNW,330,0.0,0.0,83,0.00,,,0.00,Wunderground v.1.15,2013-12-31 23:10:00,
2013-12-31 18:15:00,42.0,37.2,30.38,NNW,330,0.0,0.0,83,0.00,,,0.00,Wunderground v.1.15,2013-12-31 23:15:00,
2013-12-31 18:25:00,41.5,37.0,30.39,NNW,330,0.0,0.0,84,0.00,,,0.00,Wunderground v.1.15,2013-12-31 23:25:00,
2013-12-31 18:30:00,41.3,37.1,30.39,NNW,330,0.0,0.0,85,0.00,,,0.00,Wunderground v.1.15,2013-12-31 23:30:00,
2013-12-31 18:40:00,41.0,37.1,30.39,NNW,330,0.0,0.0,86,0.00,,,0.00,Wunderground v.1.15,2013-12-31 23:40:00,
2013-12-31 18:45:00,40.8,36.9,30.40,NNW,330,0.0,0.0,86,0.00,,,0.00,Wunderground v.1.15,2013-12-31 23:45:00,
2013-12-31 18:55:00,40.4,36.5,30.39,NNW,330,0.0,0.0,86,0.00,,,0.00,Wunderground v.1.15,2013-12-31 23:55:00,
2013-12-31 19:00:00,40.3,36.7,30.40,NNW,330,0.0,0.0,87,0.00,,,0.00,Wunderground v.1.15,2014-01-01 00:00:00,
2013-12-31 19:10:00,39.9,36.3,30.40,NNW,330,0.0,0.0,87,0.00,,,0.00,Wunderground v.1.15,2014-01-01 00:10:00,
2013-12-31 19:15:00,39.7,36.4,30.40,NNW,330,0.0,0.0,88,0.00,,,0.00,Wunderground v.1.15,2014-01-01 00:15:00,
2013-12-31 19:25:00,39.3,36.0,30.40,NNW,330,0.0,0.0,88,0.00,,,0.00,Wunderground v.1.15,2014-01-01 00:25:00,
2013-12-31 19:30:00,39.2,36.2,30.40,NNW,330,0.0,0.0,89,0.00,,,0.00,Wunderground v.1.15,2014-01-01 00:30:00,
2013-12-31 19:35:00,39.1,36.1,30.40,NNW,330,0.0,0.0,89,0.00,,,0.00,Wunderground v.1.15,2014-01-01 00:35:00,
2013-12-31 19:40:00,39.0,36.3,30.40,NNW,330,0.0,0.0,90,0.00,,,0.00,Wunderground v.1.15,2014-01-01 00:40:00,
2013-12-31 19:45:00,38.9,36.2,30.41,NNW,330,0.0,0.0,90,0.00,,,0.00,Wunderground v.1.15,2014-01-01 00:45:00,
2013-12-31 19:50:00,38.8,36.1,30.41,NNW,330,0.0,0.0,90,0.00,,,0.00,Wunderground v.1.15,2014-01-01 00:50:00,
2013-12-31 20:00:00,38.6,35.9,30.41,NNW,330,0.0,0.0,90,0.00,,,0.00,Wunderground v.1.15,2014-01-01 01:00:00,
2013-12-31 20:10:00,38.3,35.9,30.41,NNW,330,0.0,0.0,91,0.00,,,0.00,Wunderground v.1.15,2014-01-01 01:10:00,
2013-12-31 20:15:00,38.2,35.8,30.40,NNW,330,0.0,0.0,91,0.00,,,0.00,Wunderground v.1.15,2014-01-01 01:15:00,
2013-12-31 20:20:00,38.0,35.6,30.41,NNW,330,0.0,0.0,91,0.00,,,0.00,Wunderground v.1.15,2014-01-01 01:20:00,
2013-12-31 20:30:00,37.8,35.4,30.42,NNW,330,0.0,0.0,91,0.00,,,0.00,Wunderground v.1.15,2014-01-01 01:30:00,
2013-12-31 20:35:00,37.7,35.3,30.42,NNW,330,0.0,0.0,91,0.00,,,0.00,Wunderground v.1.15,2014-01-01 01:35:00,
2013-12-31 20:40:00,37.5,35.4,30.42,NNW,330,0.0,0.0,92,0.00,,,0.00,Wunderground v.1.15,2014-01-01 01:40:00,
2013-12-31 20:45:00,37.4,35.3,30.42,NNW,330,0.0,0.0,92,0.00,,,0.00,Wunderground v.1.15,2014-01-01 01:45:00,
2013-12-31 20:55:00,37.3,35.2,30.42,NNW,330,0.0,0.0,92,0.00,,,0.00,Wunderground v.1.15,2014-01-01 01:55:00,
2013-12-31 21:00:00,37.2,35.1,30.42,NNW,330,0.0,0.0,92,0.00,,,0.00,Wunderground v.1.15,2014-01-01 02:00:00,
2013-12-31 21:10:00,37.0,34.9,30.42,NNW,330,0.0,0.0,92,0.00,,,0.00,Wunderground v.1.15,2014-01-01 02:10:00,
2013-12-31 21:15:00,36.8,35.0,30.42,NNW,330,0.0,1.0,93,0.00,,,0.00,Wunderground v.1.15,2014-01-01 02:15:00,
2013-12-31 21:20:00,36.6,34.8,30.42,NNW,330,0.0,0.0,93,0.00,,,0.00,Wunderground v.1.15,2014-01-01 02:20:00,
2013-12-31 21:25:00,36.5,34.7,30.41,NNW,330,0.0,0.0,93,0.00,,,0.00,Wunderground v.1.15,2014-01-01 02:25:00,
2013-12-31 21:35:00,36.1,34.3,30.42,NNW,330,0.0,0.0,93,0.00,,,0.00,Wunderground v.1.15,2014-01-01 02:35:00,
2013-12-31 21:40:00,36.0,34.2,30.42,NNW,330,0.0,0.0,93,0.00,,,0.00,Wunderground v.1.15,2014-01-01 02:40:00,
2013-12-31 21:50:00,35.7,33.9,30.42,NNW,330,0.0,0.0,93,0.00,,,0.00,Wunderground v.1.15,2014-01-01 02:50:00,
2013-12-31 21:55:00,35.6,33.8,30.42,NNW,330,0.0,0.0,93,0.00,,,0.00,Wunderground v.1.15,2014-01-01 02:55:00,
2013-12-31 22:05:00,35.3,33.7,30.42,NNW,330,0.0,0.0,94,0.00,,,0.00,Wunderground v.1.15,2014-01-01 03:05:00,
2013-12-31 22:10:00,35.2,33.4,30.42,NNW,330,0.0,0.0,93,0.00,,,0.00,Wunderground v.1.15,2014-01-01 03:10:00,
2013-12-31 22:15:00,35.1,33.5,30.43,NNW,330,0.0,0.0,94,0.00,,,0.00,Wunderground v.1.15,2014-01-01 03:15:00,
2013-12-31 22:25:00,34.9,33.3,30.43,NNW,330,0.0,0.0,94,0.00,,,0.00,Wunderground v.1.15,2014-01-01 03:25:00,
2013-12-31 22:30:00,34.8,33.2,30.43,NNW,330,0.0,0.0,94,0.00,,,0.00,Wunderground v.1.15,2014-01-01 03:30:00,
2013-12-31 22:40:00,34.7,33.2,30.43,NNW,330,0.0,0.0,94,0.00,,,0.00,Wunderground v.1.15,2014-01-01 03:40:00,
2013-12-31 22:50:00,34.4,32.9,30.43,NNW,330,0.0,0.0,94,0.00,,,0.00,Wunderground v.1.15,2014-01-01 03:50:00,
2013-12-31 22:55:00,34.4,32.9,30.43,NNW,330,0.0,0.0,94,0.00,,,0.00,Wunderground v.1.15,2014-01-01 03:55:00,
2013-12-31 23:00:00,34.4,32.9,30.42,NNW,330,0.0,0.0,94,0.00,,,0.00,Wunderground v.1.15,2014-01-01 04:00:00,
2013-12-31 23:10:00,34.0,32.5,30.42,NNW,330,0.0,0.0,94,0.00,,,0.00,Wunderground v.1.15,2014-01-01 04:10:00,
2013-12-31 23:15:00,33.8,32.3,30.43,NNW,330,0.0,0.0,94,0.00,,,0.00,Wunderground v.1.15,2014-01-01 04:15:00,
2013-12-31 23:25:00,33.6,32.1,30.42,NNW,330,0.0,0.0,94,0.00,,,0.00,Wunderground v.1.15,2014-01-01 04:25:00,
2013-12-31 23:30:00,33.5,32.0,30.42,NNW,330,0.0,0.0,94,0.00,,,0.00,Wunderground v.1.15,2014-01-01 04:30:00,
2013-12-31 23:40:00,33.4,31.9,30.42,NNW,330,0.0,0.0,94,0.00,,,0.00,Wunderground v.1.15,2014-01-01 04:40:00,
2013-12-31 23:50:00,33.5,32.2,30.42,NNW,330,0.0,0.0,95,0.00,,,0.00,Wunderground v.1.15,2014-01-01 04:50:00,
2013-12-31 23:55:00,33.4,32.1,30.42,NNW,330,0.0,0.0,95,0.00,,,0.00,Wunderground v.1.15,2014-01-01 04:55:00,